STARLINK-3289 (50173 NORAD) Tracking and Keplerian Element Data

This shows tracking and keplerian element data for the satellite.

Feedback or suggestion? Click here.




ElementValue
Catalog50173
NameSTARLINK-3289
Epoch Orbit130
Epoch Day140.58334491
Epoch Year2022
RAAN354.9943
Inclination53.2251
Eccentricity0.000644
Argument of Perigee288.7141
Mean Anonmoly327.5671
Mean Motion15.0885571
Decay Rate-5.509E-05
L11 50173U 21125T 22140.58334491 -.00005509 00000+0 -32789-3 0 9995
L22 50173 53.2251 354.9943 0006440 288.7141 327.5671 15.08855710 1303

Live tracking and technical data element details for STARLINK-3289 (NORAD 50173). STARLINK-3289 can be tracked NOW for your location showing map with azimuth and elevation plus other details from your city location.

Track the satellite on the map from your city or location and see movement details for azimuth, elevation, latitude, longitude, range, height, and movement on the map or in text.







IsCatalogInMostPopularTable: catalog: 50173, numindb: 25
Update: records affected: 1



GetName: 50173 STARLINK-3289

Hit Count: updated at: Mon, 23 May 2022 20:36:44 GMT